TimeMST,TemperatureF,Dew PointF,Humidity,Sea Level PressureIn,VisibilityMPH,Wind Direction,Wind SpeedMPH,Gust SpeedMPH,PrecipitationIn,Events,Conditions,WindDirDegrees,DateUTC
12:51 AM,42.1,30.9,65,30.14,10.0,Calm,Calm,-,N/A,,Clear,0,2012-11-20 07:51:00
1:51 AM,41.0,28.9,62,30.15,10.0,NNE,3.5,-,N/A,,Clear,20,2012-11-20 08:51:00
2:51 AM,42.1,27.0,55,30.15,10.0,Calm,Calm,-,N/A,,Clear,0,2012-11-20 09:51:00
3:51 AM,41.0,26.1,55,30.15,10.0,North,3.5,-,N/A,,Clear,350,2012-11-20 10:51:00
4:51 AM,37.9,25.0,60,30.17,10.0,NNW,6.9,-,N/A,,Clear,340,2012-11-20 11:51:00
5:51 AM,37.0,25.0,62,30.21,10.0,NW,3.5,-,N/A,,Clear,310,2012-11-20 12:51:00
6:51 AM,37.0,25.0,62,30.24,10.0,Calm,Calm,-,N/A,,Clear,0,2012-11-20 13:51:00
7:51 AM,39.9,26.1,58,30.25,10.0,North,4.6,-,N/A,,Clear,360,2012-11-20 14:51:00
8:51 AM,45.0,27.0,49,30.25,10.0,NNW,3.5,-,N/A,,Clear,340,2012-11-20 15:51:00
9:51 AM,51.1,28.0,41,30.24,10.0,Calm,Calm,-,N/A,,Clear,0,2012-11-20 16:51:00
10:51 AM,57.0,27.0,32,30.22,10.0,SSE,3.5,-,N/A,,Clear,150,2012-11-20 17:51:00
11:51 AM,62.1,24.1,23,30.17,10.0,Variable,5.8,-,N/A,,Clear,0,2012-11-20 18:51:00
12:51 PM,64.9,27.0,24,30.14,10.0,SE,6.9,-,N/A,,Clear,140,2012-11-20 19:51:00
1:51 PM,68.0,24.1,19,30.12,10.0,SE,8.1,-,N/A,,Clear,140,2012-11-20 20:51:00
2:51 PM,69.1,24.1,18,30.10,10.0,SSE,11.5,-,N/A,,Clear,150,2012-11-20 21:51:00
3:51 PM,68.0,21.0,17,30.11,10.0,SE,10.4,-,N/A,,Clear,140,2012-11-20 22:51:00
4:51 PM,61.0,23.0,23,30.13,10.0,SE,4.6,-,N/A,,Clear,140,2012-11-20 23:51:00
5:51 PM,55.0,25.0,31,30.15,10.0,SSE,3.5,-,N/A,,Clear,150,2012-11-21 00:51:00
6:51 PM,48.0,23.0,37,30.18,10.0,SW,5.8,-,N/A,,Clear,220,2012-11-21 01:51:00
7:51 PM,46.9,23.0,39,30.18,10.0,WSW,6.9,-,N/A,,Clear,240,2012-11-21 02:51:00
8:51 PM,48.0,23.0,37,30.17,10.0,WSW,6.9,-,N/A,,Clear,250,2012-11-21 03:51:00
9:51 PM,46.9,23.0,39,30.17,10.0,Calm,Calm,-,N/A,,Clear,0,2012-11-21 04:51:00
10:51 PM,44.1,24.1,45,30.16,10.0,Calm,Calm,-,N/A,,Clear,0,2012-11-21 05:51:00
11:51 PM,43.0,26.1,51,30.15,10.0,NNE,4.6,-,N/A,,Clear,30,2012-11-21 06:51:00